Home   Weather   Münster   Past weeks

Flag for Germany Past Weather in Münster, North Rhine-Westphalia, Germany — Yesterday and Last 2 Weeks

Now
32 °F

Clear.


Feels Like: 32 °F
Forecast: 33 / 53 °F
Wind: 1 mph from North

Location: Muenster / Osnabrueck

Current Time: Apr 27, 2017 at 5:32:51 am

Latest Report: Apr 27, 2017 at 4:50 am


Visibility: 10 mi

Pressure: 29.98 "Hg

Humidity: 100%

Dew Point: 32 °F

Location of MünsterLocation

Past Weather in Münster — Graph

°F

Münster Temperature Yesterday

Maximum temperature yesterday: 52 °F (at 5:50 pm)
Minimum temperature yesterday: 28 °F (at 5:50 am)
Average temperature yesterday: 40 °F

High & Low Weather Summary for the Past Weeks

 TemperatureHumidityPressure
High57 °F (Apr 24, 1:50 pm)100% (Apr 12, 11:50 pm)30.63 "Hg (Apr 12, 11:50 pm)
Low27 °F (Apr 20, 4:20 am)30% (Apr 20, 4:50 pm)29.65 "Hg (Apr 25, 3:20 am)
Average44 °F71%30.11 "Hg
* Reported Apr 12 3:20 am — Apr 27 3:50 am, Münster, Weather by CustomWeather, © 2017

Note: Actual official high and low records may vary slightly from our data, if they occured in-between our weather recording intervals... More about our weather records

Advertising

Münster Weather History for the Previous 24 Hours

Scroll right to see more
 ConditionsComfort  
Time TempWeatherWind HumidityBarometerVisibility
3:50 am
Thu, Apr 27
34 °FClear.3 mph93%29.95 "Hg10 mi
3:20 am32 °FClear.2 mph93%29.95 "Hg10 mi
2:50 am32 °FFog.2 mph93%29.95 "HgN/A
2:20 am32 °FFog.1 mph93%29.95 "HgN/A
1:50 am32 °FFog.1 mph93%29.98 "HgN/A
1:20 am32 °FClear.1 mph93%29.98 "Hg10 mi
12:50 am32 °FClear.1 mph93%29.98 "Hg10 mi
12:20 am34 °FClear.1 mph93%29.95 "Hg10 mi
11:50 pm
Wed, Apr 26
34 °FClear.3 mph87%29.95 "Hg10 mi
11:20 pm37 °FClear.2 mph81%29.95 "Hg10 mi
10:50 pm37 °FClear.1 mph81%29.95 "Hg10 mi
9:50 pm37 °FPassing clouds.1 mph81%29.95 "HgN/A
9:20 pm39 °FPassing clouds.2 mph75%29.95 "HgN/A
8:50 pm41 °FPassing clouds.5 mph70%29.92 "HgN/A
7:50 pm46 °FScattered showers. Scattered clouds.8 mph57%29.92 "HgN/A
7:20 pm46 °FScattered showers. Scattered clouds.13 mph53%29.92 "HgN/A
6:50 pm45 °FScattered showers. Partly sunny.12 mph57%29.89 "HgN/A
6:20 pm48 °FPartly sunny.9 mph46%29.89 "HgN/A
5:50 pm52 °FPassing clouds.6 mph41%29.89 "HgN/A
5:20 pm50 °FScattered clouds.6 mph43%29.89 "HgN/A
4:50 pm50 °FScattered clouds.9 mph47%29.89 "HgN/A
4:20 pm50 °FBroken clouds.13 mph40%29.89 "HgN/A
3:50 pm50 °FScattered showers. Scattered clouds.5 mph40%29.89 "HgN/A
3:20 pm48 °FScattered clouds.3 mph46%29.89 "HgN/A
2:50 pm50 °FScattered clouds.6 mph47%29.89 "HgN/A
2:20 pm46 °FSprinkles. Partly sunny.5 mph53%29.89 "HgN/A
1:50 pm46 °FScattered showers. Partly sunny.12 mph57%29.89 "HgN/A
1:20 pm46 °FBroken clouds.7 mph57%29.89 "HgN/A
12:50 pm46 °FScattered clouds.7 mph57%29.89 "HgN/A
12:20 pm48 °FBroken clouds.5 mph54%29.89 "HgN/A
11:50 am45 °FPartly sunny.3 mph61%29.89 "HgN/A
11:20 am46 °FScattered clouds.7 mph66%29.86 "HgN/A
10:50 am45 °FPartly sunny.2 mph66%29.86 "HgN/A
10:20 am43 °FPartly sunny.2 mph76%29.86 "HgN/A
9:50 am41 °FPartly sunny.1 mph76%29.86 "HgN/A
9:20 am39 °FPartly sunny.2 mph87%29.86 "HgN/A
8:50 am37 °FPartly sunny.2 mph87%29.86 "HgN/A
8:20 am36 °FPartly sunny.3 mph93%29.86 "HgN/A
7:50 am34 °FPartly sunny.2 mph93%29.86 "HgN/A
7:20 am30 °FScattered clouds.2 mph100%29.86 "HgN/A
6:50 am28 °FFog.1 mph100%29.83 "HgN/A
6:20 am28 °FFog.2 mph100%29.83 "HgN/A
5:50 am28 °FFog.1 mph93%29.83 "HgN/A
5:20 am30 °FClear.2 mph93%29.83 "Hg10 mi
Weather by CustomWeather, © 2017

See weather overviewHow to use our weather pages